Regional Weather Roundup
Issued by NWS

Home | Current Version | Previous Version | Text Only | Print | Product List | Glossary On
Versions: 1 2 3 4 5 6 7 8 9 10 11 12 13 14 15 16 17 18 19 20 21 22 23 24 25 26 27 28 29 30 31 32 33 34 35 36 37 38 39 40 41 42 43 44 45 46 47 48 49
000
ASUS46 KPQR 032310
RWROR

OREGON REGIONAL WEATHER ROUNDUP
NATIONAL WEATHER SERVICE PORTLAND OR
300 PM PST TUE MAR 03 2015

NOTE: "FAIR" INDICATES FEW OR NO CLOUDS BELOW 12,000 FEET WITH
NO SIGNIFICANT WEATHER AND/OR OBSTRUCTIONS TO VISIBILITY.

ORZ001>013-040000-
NORTHWEST OREGON


CITY           SKY/WX    TMP DP  RH WIND       PRES   REMARKS
ASTORIA        SUNNY     56  21  25 N3        30.19F
NEWPORT        SUNNY     52  41  66 N12       30.21S
PORTLAND       MOSUNNY   55  26  32 W9        30.19F
VANCOUVER WA   SUNNY     55  26  32 NW8       30.19S
SCAPPOOSE      SUNNY     55  25  31 CALM      30.18F
HILLSBORO      SUNNY     54  25  32 VRB7      30.19S
AURORA         SUNNY     54  25  32 N8        30.18F
MCMINNVILLE    SUNNY     57  28  33 N9        30.18F
SALEM          SUNNY     56  29  35 N8G17     30.17F
CORVALLIS      SUNNY     57  32  38 N8        30.18S
EUGENE         MOSUNNY   55  37  50 NE13      30.16F
$$

ORZ021-028-040000-
SOUTHWEST OREGON


CITY           SKY/WX    TMP DP  RH WIND       PRES   REMARKS
NORTH BEND     SUNNY     54  37  54 N14       30.16S
BROOKINGS      SUNNY     58  40  51 NW7       30.05F
ROSEBURG       SUNNY     57  36  45 N7        30.11F
SEXTON SUMMIT  SUNNY     43  34  70 CALM      30.04F
MEDFORD        MOSUNNY   58  26  29 NW5       30.04F
$$

ORZ014>016-041-040000-
COLUMBIA GORGE


CITY           SKY/WX    TMP DP  RH WIND       PRES   REMARKS
TROUTDALE      SUNNY     56  26  31 CALM      30.17F
THE DALLES     SUNNY     52  17  25 N5        30.19F
$$

ORZ029>031-041-044-049-050-061>064-502-503-505>511-040000-
EASTERN OREGON


CITY           SKY/WX    TMP DP  RH WIND       PRES   REMARKS
REDMOND        SUNNY     44  17  33 NW6       30.10F
BEND           SUNNY     41  14  33 N9        30.09S
PRINEVILLE     SUNNY     43  18  36 VRB5      30.10S
KLAMATH FALLS  SUNNY     47  18  31 N6        30.02F
LAKEVIEW       SUNNY     45  10  24 NW7       30.04R
HERMISTON      SUNNY     47  15  27 CALM      30.22S
PENDLETON      SUNNY     42  14  32 MISG      30.18F
JOHN DAY       SUNNY     40  18  40 W9        30.08F WCI  34
MEACHAM        MOSUNNY   32  14  47 CALM      30.10S
LA GRANDE      SUNNY     39  10  30 NW14      30.10S WCI  31
BAKER CITY     SUNNY     39  11  31 NW22G29   30.06R WCI  29
BURNS          SUNNY     42  15  33 W10       30.04S
ROME             N/A     43   4  19 MISG      30.01R
ONTARIO        SUNNY     47  15  27 NW9       30.07S
$$


USA.gov is the U.S. government's official web portal to all federal, state and local government web resources and services.